Savoy, IL

2:57 AM CST on January 23, 2017 (GMT -0600)
Univ Of Illinois-Willard

Weather History for KCMI - July, 2012

Change the Weather History Date:

Thursday, July 26, 2012

  Actual Average Record
Temperature  
Mean Temperature 78 °F 74 °F  
Max Temperature 89 °F 83 °F 93 °F (1997)
Min Temperature 67 °F 64 °F 52 °F (2004)
Degree Days  
Heating Degree Days 0 0  
Month to date heating degree days 0 0  
Since 1 June heating degree days 14 17  
Since 1 July heating degree days 0 0  
Cooling Degree Days 13 9  
Month to date cooling degree days 431 243  
Year to date cooling degree days 885 558  
Since 1 June cooling degree days 659 466  
Growing Degree Days 29 (Base 50)    
Moisture  
Dew Point 69 °F    
Average Humidity 72    
Maximum Humidity 90    
Minimum Humidity 53    
Precipitation  
Precipitation T in 0.13 in 0.98 in (2006)
Month to date precipitation T 3.75  
Year to date precipitation 12.26 23.08  
Sea Level Pressure  
Sea Level Pressure 29.76 in    
Wind  
Wind Speed 10 mph (West)    
Max Wind Speed 23 mph    
Max Gust Speed 29 mph    
Visibility 10 miles    
Events Rain , Thunderstorm    
T = Trace of Precipitation, MM = Missing Value Source: NWS Daily Summary

Daily Weather History Graph

Daily Weather History Graph

Search for Another Location

Airport or City:

Trip Planner

Search our weather history database for the weather conditions in past years. The results will help you decide how hot, cold, wet, or windy it might be!

Date:

Astronomy

Jul. 26, 2012 Rise Set
Actual Time 5:46 AM CDT 8:12 PM CDT
Civil Twilight 5:15 AM CDT 8:43 PM CDT
Nautical Twilight 4:37 AM CDT 9:21 PM CDT
Astronomical Twilight 3:54 AM CDT 10:03 PM CDT
Moon 1:59 PM CDT (7/26) No Moon Set
Length of Visible Light 15h 27m
Length of Day
14h 25m
First Quarter, 54% of the Moon is Illuminated
Jul 26
First Quarter
Aug 1
Full
Aug 9
Last Quarter
Aug 17
New
Aug 24
First Quarter

Hourly Weather History & Observations

Time (CDT) Temp. Heat Index Dew Point Humidity Pressure Visibility Wind Dir Wind Speed Gust Speed Precip Events Conditions
12:53 AM 84.9 °F 89.4 °F 70.0 °F 61% 29.68 in 10.0 mi SSW 12.7 mph 20.7 mph N/A   Clear
1:53 AM 84.0 °F 88.4 °F 70.0 °F 63% 29.68 in 10.0 mi SSW 12.7 mph 19.6 mph N/A   Clear
2:53 AM 84.0 °F 89.0 °F 71.1 °F 65% 29.66 in 10.0 mi SSW 13.8 mph 21.9 mph N/A   Mostly Cloudy
3:53 AM 82.9 °F 87.5 °F 71.1 °F 67% 29.65 in 10.0 mi SSW 12.7 mph - N/A   Clear
4:53 AM 82.0 °F 86.3 °F 71.1 °F 69% 29.68 in 10.0 mi SW 9.2 mph - N/A   Clear
5:53 AM 80.1 °F 83.6 °F 71.1 °F 74% 29.71 in 10.0 mi WSW 4.6 mph - N/A   Mostly Cloudy
6:53 AM 80.1 °F 83.6 °F 71.1 °F 74% 29.74 in 10.0 mi West 10.4 mph - N/A   Partly Cloudy
7:53 AM 81.0 °F 83.3 °F 66.9 °F 62% 29.76 in 10.0 mi NNW 12.7 mph - N/A   Clear
8:53 AM 81.0 °F 83.3 °F 66.9 °F 62% 29.75 in 10.0 mi NW 6.9 mph - N/A   Partly Cloudy
9:53 AM 82.0 °F 85.5 °F 69.1 °F 65% 29.78 in 10.0 mi West 5.8 mph - N/A   Overcast
10:53 AM 84.0 °F 86.5 °F 66.9 °F 56% 29.77 in 10.0 mi WSW 12.7 mph - N/A   Clear
11:53 AM 87.1 °F 90.6 °F 68.0 °F 53% 29.77 in 10.0 mi West 9.2 mph 17.3 mph N/A   Mostly Cloudy
12:53 PM 82.0 °F 84.9 °F 68.0 °F 62% 29.79 in 10.0 mi WSW 15.0 mph 18.4 mph 0.00 in   Mostly Cloudy
1:53 PM 81.0 °F 84.1 °F 69.1 °F 67% 29.80 in 10.0 mi West 10.4 mph - 0.00 in   Mostly Cloudy
2:53 PM 84.9 °F 88.8 °F 69.1 °F 59% 29.79 in 10.0 mi West 12.7 mph - N/A   Mostly Cloudy
3:53 PM 88.0 °F 92.1 °F 69.1 °F 53% 29.76 in 10.0 mi West 13.8 mph - N/A   Clear
4:53 PM 87.1 °F 91.3 °F 69.1 °F 55% 29.74 in 10.0 mi WSW 13.8 mph - N/A   Clear
5:53 PM 84.9 °F 88.8 °F 69.1 °F 59% 29.75 in 10.0 mi West 11.5 mph - N/A   Scattered Clouds
6:53 PM 86.0 °F 90.1 °F 69.1 °F 57% 29.76 in 10.0 mi WNW 10.4 mph - N/A   Clear
7:53 PM 81.0 °F 84.4 °F 70.0 °F 69% 29.78 in 10.0 mi West 5.8 mph - N/A   Clear
8:46 PM 78.8 °F - 66.2 °F 65% 29.83 in 7.0 mi West 23.0 mph 28.8 mph 0.00 in Rain , Thunderstorm Light Rain
8:53 PM 72.0 °F - 69.1 °F 91% 29.79 in 3.0 mi WNW 5.8 mph 28.8 mph 0.00 in Rain , Thunderstorm Heavy Rain
9:01 PM 73.4 °F - 68.0 °F 83% 29.80 in 6.0 mi WNW 6.9 mph - 0.00 in Rain Light Rain
9:53 PM 73.0 °F - 69.1 °F 87% 29.80 in 10.0 mi WNW 6.9 mph - 0.00 in   Clear
10:53 PM 70.0 °F - 66.9 °F 90% 29.81 in 10.0 mi NW 6.9 mph - N/A   Clear
11:53 PM 69.1 °F - 66.0 °F 90% 29.81 in 10.0 mi WNW 5.8 mph - N/A   Clear